Find Starlink 34476

NORAD ID: 64364 Int'l Des: 2025-126 Owner: SPXS Country: US Constellation: starlink operational
LEOCIRCULAR

Live-Position

3D-Globus wird geladen...

Über Starlink 34476

Beschreibung wird geladen...

Nächste Überflüge

Passes for default location (London). Set your location on the main map for personalized predictions.

Höhenverlauf

Loading altitude history...

Zweizeiliger Elementsatz

1 64364U 25126W 26106.94771633 .00002238 00000-0 19529-3 0 9998
2 64364 69.9996 297.9492 0002804 269.7893 90.2945 14.98339730 46414
Epoch: 16. Apr. 2026 • Age: 14 hours

Aktueller Status

Höhe 574.3 km
Geschwindigkeit 7.57 km/s
Subsatellitenpunkt 15.07°N, 102.21°W
Startdatum 13. Juni 2025
Alter 0.8 years
Typ internet

Technische Details

Klassifizierung Payload
Masse 575.00 kg
Trockenmasse 530.00 kg
Gesamtmasse 575.00 kg
Länge 0.30 m
Durchmesser 4.10 m
Spannweite 29.00 m
Form Box + pan
Hersteller SPXS
Bus-Typ Starlink V2MO
Phasenstatus In Orbit
Besitzer/Staat SPXS/US

Most Searched